This is the latest recevied weather packets stored in our database for station/object GBTWP-2. If no packets are shown the sender has not sent any weather packets the latest 10 day(s).
| Time | Temp. | Humidity | Pressure | Rain* | Wind** | Luminosity | Snow |
|---|---|---|---|---|---|---|---|
| 1788354117 | 26.67° C | 84% | 1017.6 hPa | 0 mm | - | 131 W/m² | - |
| 1788353819 | 26.11° C | 85% | 1017.5 hPa | 0 mm | - | 124 W/m² | - |
| 1788353519 | 26.11° C | 86% | 1017.7 hPa | 0 mm | - | 112 W/m² | - |
| 1788353228 | 25.56° C | 87% | 1017.5 hPa | 0 mm | - | 105 W/m² | - |
| 1788352919 | 25.56° C | 87% | 1017.4 hPa | 0 mm | - | 101 W/m² | - |
| 1788352619 | 25.56° C | 88% | 1017.5 hPa | 0 mm | - | 85 W/m² | - |
| 1788352319 | 25.56° C | 88% | 1017.4 hPa | 0 mm | - | 83 W/m² | - |
| 1788352017 | 25° C | 89% | 1017.4 hPa | 0 mm | - | 97 W/m² | - |
| 1788351719 | 25° C | 90% | 1017.4 hPa | 0 mm | - | 91 W/m² | - |
| 1788351420 | 24.44° C | 91% | 1017.6 hPa | 0 mm | - | 82 W/m² | - |
| 1788351119 | 24.44° C | 91% | 1017.4 hPa | 0 mm | - | 69 W/m² | - |
| 1788350819 | 24.44° C | 92% | 1017.4 hPa | 0 mm | - | 58 W/m² | - |
| 1788350519 | 23.89° C | 92% | 1017.3 hPa | 0 mm | - | 45 W/m² | - |
| 1788350220 | 23.89° C | 93% | 1017.4 hPa | 0 mm | - | 36 W/m² | - |
| 1788349919 | 23.89° C | 93% | 1017.4 hPa | 0 mm | - | 30 W/m² | - |
| 1788349621 | 23.89° C | 93% | 1017.3 hPa | 0 mm | - | 26 W/m² | - |
| 1788349319 | 23.89° C | 93% | 1017.3 hPa | 0 mm | - | 22 W/m² | - |
| 1788349037 | 23.89° C | 93% | 1017.2 hPa | 0 mm | - | 18 W/m² | - |
| 1788348719 | 23.89° C | 93% | 1017.4 hPa | 0 mm | - | 15 W/m² | - |
| 1788348420 | 23.89° C | 93% | 1017.3 hPa | 0 mm | - | 11 W/m² | - |
| 1788348119 | 23.89° C | 93% | 1017.4 hPa | 0 mm | - | 9 W/m² | - |
| 1788347819 | 23.89° C | 93% | 1017.6 hPa | 0 mm | - | 6 W/m² | - |
| 1788347519 | 23.89° C | 93% | 1017.3 hPa | 0 mm | - | 5 W/m² | - |
| 1788347221 | 23.89° C | 93% | 1017.5 hPa | 0 mm | - | 3 W/m² | - |
| 1788346919 | 23.89° C | 92% | 1017.4 hPa | 0 mm | - | 1 W/m² | - |
* Rain latest hour (hover to see other rain measurements)
** Current wind speed in m/s (hover to see current wind gust speed)